RYR8SC EGSS-LEXJ

Flight info

Callsign RYR8SC
Flight time N/A
Altitude 35000
Route NUGBO M183 SILVA Q41 SAM N63 LELNA DCT ERCOZ DCT NOVAN DCT DELOG N864 SNR M190 OBETO
Aircraft B738/M-SDGIJ1LRWY/SB1

Departure

Time 2026-05-06 11:29
Airport London Stansted Airport (EGSS)

Arrival

Time N/A
Airport Seve Ballesteros-Santander Airport (LEXJ)
Time Latitude Longitude Altitude Speed Heading
2026-05-06 10:53 51.89266 0.25914 348 ft 0 kts 43°
2026-05-06 10:54 51.89243 0.25963 348 ft 0 kts 43°
2026-05-06 11:17 51.89241 0.25959 348 ft 2 kts 43°
2026-05-06 11:17 51.89231 0.25945 348 ft 0 kts 43°
2026-05-06 11:17 51.89222 0.25933 348 ft 2 kts 25°
2026-05-06 11:18 51.89208 0.25926 347 ft 2 kts
2026-05-06 11:18 51.89193 0.25929 347 ft 2 kts 340°
2026-05-06 11:18 51.89180 0.25940 347 ft 1 kts 318°
2026-05-06 11:18 51.89176 0.25947 347 ft 1 kts 310°
2026-05-06 11:19 51.89174 0.25951 347 ft 0 kts 312°
2026-05-06 11:21 51.89175 0.25949 347 ft 1 kts 313°
2026-05-06 11:21 51.89205 0.25897 347 ft 8 kts 313°
2026-05-06 11:22 51.89250 0.25821 348 ft 9 kts 313°
2026-05-06 11:22 51.89297 0.25739 348 ft 10 kts 313°
2026-05-06 11:22 51.89345 0.25654 348 ft 11 kts 311°
2026-05-06 11:22 51.89393 0.25533 349 ft 13 kts 303°
2026-05-06 11:23 51.89411 0.25387 349 ft 14 kts 225°
2026-05-06 11:23 51.89326 0.25269 347 ft 17 kts 221°
2026-05-06 11:23 51.89237 0.25188 345 ft 14 kts 162°
2026-05-06 11:23 51.89148 0.25228 344 ft 14 kts 210°
2026-05-06 11:24 51.89066 0.25104 342 ft 19 kts 223°
2026-05-06 11:24 51.88962 0.24949 340 ft 20 kts 221°
2026-05-06 11:24 51.88855 0.24788 339 ft 22 kts 224°
2026-05-06 11:24 51.88731 0.24602 338 ft 24 kts 223°
2026-05-06 11:25 51.88603 0.24409 338 ft 25 kts 223°
2026-05-06 11:25 51.88474 0.24216 338 ft 24 kts 223°
2026-05-06 11:25 51.88348 0.24028 340 ft 26 kts 223°
2026-05-06 11:25 51.88206 0.23814 342 ft 27 kts 222°
2026-05-06 11:26 51.88070 0.23611 343 ft 26 kts 223°
2026-05-06 11:26 51.87940 0.23416 343 ft 25 kts 223°
2026-05-06 11:26 51.87814 0.23225 343 ft 24 kts 223°
2026-05-06 11:26 51.87735 0.23083 343 ft 14 kts 257°
2026-05-06 11:27 51.87782 0.22945 342 ft 14 kts 300°
2026-05-06 11:27 51.87740 0.22816 342 ft 14 kts 221°
2026-05-06 11:27 51.87656 0.22695 340 ft 17 kts 223°
2026-05-06 11:27 51.87562 0.22552 339 ft 18 kts 223°
2026-05-06 11:28 51.87523 0.22429 338 ft 12 kts 290°
2026-05-06 11:28 51.87605 0.22290 337 ft 19 kts 328°
2026-05-06 11:28 51.87696 0.22270 337 ft 12 kts 42°
2026-05-06 11:28 51.87808 0.22443 339 ft 48 kts 41°
2026-05-06 11:29 51.88209 0.23044 343 ft 107 kts 43°
2026-05-06 11:29 51.88884 0.24054 341 ft 156 kts 43°
2026-05-06 11:29 51.89704 0.25301 810 ft 159 kts 39°
2026-05-06 11:29 51.90503 0.26447 1462 ft 157 kts 37°
2026-05-06 11:30 51.91329 0.27638 1959 ft 164 kts 39°
2026-05-06 11:30 51.92173 0.28914 2360 ft 172 kts 38°
2026-05-06 11:30 51.93233 0.29881 2709 ft 181 kts 11°
2026-05-06 11:30 51.94551 0.29841 2956 ft 201 kts 345°
2026-05-06 11:31 51.95764 0.28880 3790 ft 193 kts 327°
2026-05-06 11:31 51.96717 0.27188 3983 ft 221 kts 299°
2026-05-06 11:31 51.97160 0.24676 4304 ft 242 kts 282°
2026-05-06 11:31 51.97376 0.21929 4712 ft 256 kts 280°
2026-05-06 11:32 51.97622 0.18997 4973 ft 270 kts 281°
2026-05-06 11:32 51.97933 0.15901 5475 ft 278 kts 282°
2026-05-06 11:32 51.98261 0.12867 6225 ft 277 kts 282°
2026-05-06 11:32 51.98595 0.09837 6935 ft 278 kts 282°
2026-05-06 11:33 51.98894 0.06718 7661 ft 279 kts 277°
2026-05-06 11:33 51.98831 0.03569 8271 ft 286 kts 264°
2026-05-06 11:33 51.98430 0.00377 8910 ft 290 kts 258°
2026-05-06 11:33 51.97944 -0.02712 9754 ft 287 kts 258°
2026-05-06 11:34 51.97471 -0.05838 10479 ft 288 kts 259°
2026-05-06 11:34 51.97028 -0.09066 10929 ft 301 kts 260°
2026-05-06 11:34 51.96593 -0.12460 11327 ft 315 kts 260°
2026-05-06 11:34 51.96146 -0.15989 11684 ft 330 kts 260°
2026-05-06 11:35 51.95663 -0.19651 12253 ft 338 kts 257°
2026-05-06 11:35 51.94714 -0.23154 12915 ft 346 kts 236°
2026-05-06 11:35 51.93001 -0.25858 13651 ft 351 kts 218°
2026-05-06 11:35 51.90984 -0.28080 14341 ft 355 kts 214°
2026-05-06 11:36 51.88883 -0.30202 15095 ft 358 kts 213°
2026-05-06 11:36 51.86780 -0.32323 15845 ft 360 kts 214°
2026-05-06 11:36 51.84664 -0.34513 16570 ft 363 kts 215°
2026-05-06 11:36 51.82562 -0.36741 17275 ft 365 kts 215°
2026-05-06 11:37 51.80438 -0.39028 17952 ft 369 kts 216°
2026-05-06 11:37 51.78308 -0.41338 18358 ft 378 kts 216°
2026-05-06 11:37 51.76114 -0.43725 18245 ft 387 kts 216°
2026-05-06 11:37 51.73900 -0.46131 19167 ft 382 kts 216°
2026-05-06 11:38 51.71718 -0.48494 19977 ft 380 kts 216°
2026-05-06 11:38 51.69515 -0.50877 20632 ft 382 kts 216°
2026-05-06 11:38 51.67298 -0.53269 21222 ft 385 kts 216°
2026-05-06 11:38 51.65078 -0.55666 21802 ft 388 kts 216°
2026-05-06 11:39 51.62843 -0.58073 22380 ft 391 kts 216°
2026-05-06 11:39 51.60596 -0.60491 22904 ft 394 kts 216°
2026-05-06 11:39 51.58313 -0.62942 23488 ft 396 kts 216°
2026-05-06 11:39 51.56018 -0.65405 24010 ft 400 kts 215°
2026-05-06 11:40 51.53697 -0.67892 24506 ft 403 kts 215°
2026-05-06 11:40 51.51352 -0.70403 24992 ft 407 kts 215°
2026-05-06 11:40 51.48990 -0.72927 25504 ft 409 kts 214°
2026-05-06 11:40 51.46629 -0.75446 25954 ft 413 kts 215°
2026-05-06 11:41 51.44219 -0.78015 26423 ft 416 kts 214°
2026-05-06 11:41 51.41808 -0.80582 26845 ft 420 kts 214°
2026-05-06 11:41 51.39339 -0.83207 27302 ft 422 kts 214°
2026-05-06 11:41 51.36889 -0.85808 27711 ft 426 kts 214°
2026-05-06 11:42 51.34442 -0.88403 28132 ft 429 kts 214°
2026-05-06 11:42 51.31936 -0.91058 28560 ft 431 kts 214°
2026-05-06 11:42 51.29442 -0.93697 28988 ft 434 kts 214°
2026-05-06 11:42 51.26930 -0.96351 29367 ft 437 kts 214°
2026-05-06 11:43 51.24401 -0.99019 29753 ft 439 kts 214°
2026-05-06 11:43 51.21867 -1.01689 30164 ft 441 kts 214°
2026-05-06 11:43 51.19312 -1.04377 30749 ft 439 kts 214°
2026-05-06 11:44 51.14234 -1.09707 31755 ft 435 kts 214°
2026-05-06 11:44 51.11731 -1.12330 32228 ft 433 kts 214°
2026-05-06 11:44 51.09235 -1.14942 32683 ft 432 kts 214°
2026-05-06 11:44 51.06740 -1.17552 33093 ft 431 kts 214°
2026-05-06 11:45 51.04249 -1.20151 33486 ft 430 kts 214°
2026-05-06 11:45 51.01744 -1.22762 33888 ft 429 kts 215°
2026-05-06 11:45 50.99262 -1.25345 34207 ft 430 kts 215°
2026-05-06 11:45 50.96751 -1.27955 34463 ft 432 kts 215°
2026-05-06 11:46 50.94242 -1.30561 34723 ft 432 kts 215°
2026-05-06 11:46 50.91762 -1.33133 34938 ft 432 kts 215°
2026-05-06 11:46 50.86755 -1.38315 34989 ft 429 kts 215°
2026-05-06 11:47 50.81755 -1.43476 34990 ft 429 kts 215°
2026-05-06 11:47 50.76787 -1.48592 34991 ft 430 kts 215°
2026-05-06 11:48 50.71761 -1.53628 34992 ft 430 kts 211°
2026-05-06 11:48 50.66474 -1.57966 34985 ft 431 kts 208°
2026-05-06 11:49 50.61066 -1.62079 34983 ft 431 kts 208°
2026-05-06 11:49 50.55699 -1.66178 34989 ft 431 kts 207°
2026-05-06 11:50 50.50323 -1.70335 34984 ft 431 kts 207°
2026-05-06 11:50 50.44985 -1.74493 34983 ft 432 kts 207°
2026-05-06 11:51 50.39612 -1.78682 34985 ft 432 kts 207°
2026-05-06 11:51 50.34249 -1.82856 34986 ft 431 kts 208°
2026-05-06 11:52 50.28908 -1.87005 34983 ft 432 kts 208°
2026-05-06 11:52 50.23516 -1.91184 34986 ft 431 kts 208°
2026-05-06 11:53 50.18165 -1.95321 34986 ft 431 kts 208°
2026-05-06 11:53 50.12799 -1.99459 34982 ft 431 kts 208°
2026-05-06 11:54 50.07472 -2.03556 34988 ft 431 kts 208°
2026-05-06 11:54 50.02095 -2.07682 34987 ft 432 kts 207°
2026-05-06 11:55 49.96758 -2.11857 34987 ft 432 kts 210°
2026-05-06 11:55 49.91593 -2.16568 34990 ft 432 kts 213°
2026-05-06 11:56 49.86503 -2.21468 34990 ft 432 kts 213°
2026-05-06 11:56 49.81383 -2.26372 34986 ft 431 kts 213°
2026-05-06 11:57 49.76295 -2.31185 34989 ft 431 kts 213°
2026-05-06 11:57 49.71159 -2.35997 34984 ft 433 kts 213°
2026-05-06 11:58 49.66038 -2.40764 34985 ft 433 kts 213°
2026-05-06 11:58 49.60870 -2.45559 34985 ft 434 kts 213°
2026-05-06 11:59 49.55731 -2.50313 34985 ft 434 kts 213°
2026-05-06 11:59 49.50582 -2.55064 34982 ft 433 kts 213°
2026-05-06 12:00 49.45397 -2.59835 34984 ft 433 kts 213°
2026-05-06 12:00 49.40260 -2.64552 34991 ft 433 kts 213°
2026-05-06 12:01 49.35940 -2.68510 34994 ft 433 kts 212°
2026-05-06 12:01 49.31366 -2.72691 34977 ft 432 kts 212°
2026-05-06 12:02 49.26238 -2.77368 34971 ft 432 kts 212°
2026-05-06 12:02 49.21066 -2.82073 34976 ft 432 kts 212°
2026-05-06 12:03 49.15923 -2.86740 34982 ft 432 kts 212°
2026-05-06 12:03 49.10762 -2.91412 34989 ft 431 kts 212°
2026-05-06 12:04 49.05623 -2.96052 34986 ft 431 kts 212°
2026-05-06 12:04 49.00482 -3.00685 34986 ft 432 kts 212°
2026-05-06 12:05 48.95303 -3.05341 34989 ft 432 kts 212°
2026-05-06 12:05 48.90149 -3.09961 34989 ft 432 kts 212°
2026-05-06 12:06 48.84982 -3.14581 34983 ft 432 kts 212°
2026-05-06 12:06 48.79818 -3.19187 34973 ft 433 kts 212°
2026-05-06 12:07 48.74587 -3.23844 35072 ft 438 kts 212°
2026-05-06 12:07 48.71980 -3.26160 35258 ft 439 kts 212°
2026-05-06 12:07 48.69357 -3.28488 35447 ft 438 kts 212°
2026-05-06 12:08 48.66743 -3.30804 35620 ft 439 kts 212°
2026-05-06 12:08 48.64100 -3.33143 35795 ft 439 kts 212°
2026-05-06 12:08 48.61482 -3.35457 35971 ft 438 kts 212°
2026-05-06 12:08 48.58879 -3.37756 36160 ft 437 kts 212°
2026-05-06 12:09 48.56254 -3.40072 36344 ft 437 kts 212°
2026-05-06 12:09 48.53643 -3.42372 36561 ft 437 kts 212°
2026-05-06 12:09 48.50993 -3.44702 36796 ft 437 kts 212°
2026-05-06 12:09 48.48398 -3.46981 36952 ft 438 kts 212°
2026-05-06 12:10 48.43153 -3.51580 36967 ft 435 kts 212°
2026-05-06 12:10 48.37922 -3.56150 36960 ft 435 kts 211°
2026-05-06 12:11 48.32436 -3.59822 36950 ft 438 kts 195°
2026-05-06 12:11 48.26388 -3.60933 36949 ft 441 kts 184°
2026-05-06 12:12 48.20246 -3.61194 36946 ft 441 kts 182°
2026-05-06 12:12 48.14164 -3.61350 36946 ft 441 kts 182°
2026-05-06 12:13 48.08041 -3.61562 36943 ft 441 kts 183°
2026-05-06 12:13 48.01942 -3.61822 36945 ft 441 kts 183°
2026-05-06 12:14 47.95820 -3.62109 36941 ft 442 kts 183°
2026-05-06 12:14 47.89646 -3.62407 36945 ft 442 kts 183°
2026-05-06 12:15 47.83529 -3.62707 36947 ft 441 kts 183°
2026-05-06 12:15 47.77403 -3.63007 36953 ft 442 kts 183°
2026-05-06 12:16 47.71267 -3.63307 36951 ft 441 kts 183°
2026-05-06 12:16 47.65162 -3.63605 36955 ft 441 kts 183°
2026-05-06 12:17 47.59067 -3.63902 36953 ft 442 kts 183°
2026-05-06 12:17 47.52912 -3.64200 36952 ft 441 kts 183°
2026-05-06 12:18 47.46816 -3.64495 37204 ft 443 kts 183°
2026-05-06 12:18 47.43737 -3.64645 37023 ft 444 kts 183°
2026-05-06 12:18 47.40689 -3.64791 36964 ft 438 kts 183°
2026-05-06 12:19 47.34596 -3.65083 36959 ft 440 kts 182°
2026-05-06 12:19 47.28469 -3.65378 36956 ft 441 kts 182°
2026-05-06 12:20 47.22349 -3.65672 36963 ft 440 kts 182°
2026-05-06 12:20 47.16245 -3.65964 36963 ft 441 kts 182°
2026-05-06 12:21 47.10137 -3.66255 36975 ft 441 kts 182°
2026-05-06 12:21 47.03994 -3.66548 36977 ft 441 kts 182°
2026-05-06 12:22 46.97879 -3.66838 36979 ft 441 kts 182°
2026-05-06 12:22 46.91750 -3.67129 36979 ft 442 kts 182°
2026-05-06 12:23 46.85638 -3.67418 36983 ft 441 kts 182°
2026-05-06 12:23 46.79516 -3.67708 36982 ft 441 kts 182°
2026-05-06 12:24 46.73407 -3.67995 36979 ft 441 kts 182°
2026-05-06 12:24 46.67292 -3.68282 36981 ft 441 kts 182°
2026-05-06 12:25 46.61152 -3.68569 36982 ft 441 kts 182°
2026-05-06 12:25 46.55016 -3.68856 36980 ft 441 kts 182°
2026-05-06 12:26 46.48916 -3.69140 36983 ft 441 kts 182°
2026-05-06 12:26 46.42816 -3.69423 36980 ft 441 kts 182°
2026-05-06 12:27 46.36674 -3.69709 36981 ft 441 kts 182°
2026-05-06 12:27 46.30561 -3.70027 36982 ft 441 kts 184°
2026-05-06 12:28 46.24474 -3.70812 36981 ft 441 kts 187°
2026-05-06 12:28 46.18383 -3.71813 36981 ft 440 kts 187°
2026-05-06 12:29 46.12300 -3.72803 36979 ft 439 kts 187°
2026-05-06 12:29 46.06231 -3.73754 36980 ft 439 kts 187°
2026-05-06 12:30 46.00162 -3.74676 36982 ft 439 kts 187°
2026-05-06 12:30 45.94122 -3.75580 36984 ft 440 kts 187°
2026-05-06 12:31 45.88044 -3.76481 36982 ft 440 kts 187°
2026-05-06 12:31 45.81959 -3.77378 36991 ft 440 kts 187°
2026-05-06 12:32 45.75890 -3.78271 36984 ft 439 kts 187°
2026-05-06 12:32 45.69820 -3.79161 36985 ft 439 kts 187°
2026-05-06 12:33 45.63761 -3.80048 36983 ft 439 kts 187°
2026-05-06 12:33 45.57719 -3.80931 36982 ft 439 kts 187°
2026-05-06 12:34 45.51640 -3.81816 36985 ft 440 kts 187°